Weather History for Rockland, ME

Change the Weather History Date:

Wednesday, March 14, 2012

  Actual Average Record
Temperature  
Mean Temperature 36 °F -  
Max Temperature 39 °F 34 °F 55 °F (2002)
Min Temperature 33 °F 22 °F 3 °F (2014)
Degree Days  
Heating Degree Days 29    
Moisture  
Dew Point 35 °F    
Average Humidity 97    
Maximum Humidity 100    
Minimum Humidity 93    
Precipitation  
Precipitation 0.00 in - - ()
Sea Level Pressure  
Sea Level Pressure 30.10 in    
Wind  
Wind Speed 10 mph (NNE)    
Max Wind Speed 14 mph    
Max Gust Speed 22 mph    
Visibility 4 miles    
Events      
Averages and records for this station are not official NWS values.
T = Trace of Precipitation, MM = Missing Value Source: NWS Daily Summary

Daily Weather History Graph

Daily Weather History Graph

Search for Another Location

Airport:

Trip Planner

Search our weather history database for the weather conditions in past years. The results will help you decide how hot, cold, wet, or windy it might be!

Date:

Astronomy

Mar. 14, 2012 Rise Set
Actual Time 6:49 AM EDT 6:41 PM EDT
Civil Twilight 6:20 AM EDT 7:10 PM EDT
Nautical Twilight 5:47 AM EDT 7:44 PM EDT
Astronomical Twilight 5:13 AM EDT 8:18 PM EDT
Moon 1:27 AM EDT (3/14) 10:42 AM EDT (3/14)
Length of Visible Light 12h 49m
Length of Day
11h 52m
Waning Gibbous, 54% of the Moon is Illuminated
Mar 14
Waning Gibbous
Mar 14
Last Quarter
Mar 22
New
Mar 30
First Quarter
Apr 6
Full

Hourly Weather History & Observations

Time (EDT) Temp. Windchill Dew Point Humidity Pressure Visibility Wind Dir Wind Speed Gust Speed Precip Events Conditions
12:15 AM 39.2 °F 33.6 °F 37.4 °F 93% 30.02 in 2.5 mi NNE 8.1 mph - N/A   Overcast
12:35 AM 37.4 °F 29.8 °F 37.4 °F 100% 30.03 in 1.5 mi NNE 11.5 mph - N/A   Overcast
12:55 AM 37.4 °F 29.3 °F 37.4 °F 100% 30.02 in 1.5 mi NE 12.7 mph 16.1 mph N/A   Overcast
1:15 AM 37.4 °F 29.8 °F 37.4 °F 100% 30.02 in 1.8 mi NNE 11.5 mph - N/A   Overcast
1:35 AM 37.4 °F 30.8 °F 35.6 °F 93% 30.03 in 1.8 mi NNE 9.2 mph 16.1 mph N/A   Overcast
1:55 AM 37.4 °F 31.4 °F 37.4 °F 100% 30.03 in 2.0 mi NNE 8.1 mph - N/A   Overcast
2:15 AM 37.4 °F 30.8 °F 37.4 °F 100% 30.05 in 2.0 mi NE 9.2 mph - N/A   Overcast
2:35 AM 37.4 °F 31.4 °F 37.4 °F 100% 30.04 in 2.5 mi NNE 8.1 mph - N/A   Overcast
2:55 AM 37.4 °F 29.3 °F 37.4 °F 100% 30.03 in 2.5 mi NE 12.7 mph 16.1 mph N/A   Overcast
3:15 AM 37.4 °F 30.3 °F 37.4 °F 100% 30.04 in 3.0 mi NE 10.4 mph - N/A   Overcast
3:35 AM 35.6 °F 29.2 °F 35.6 °F 100% 30.03 in 2.5 mi NNE 8.1 mph - N/A   Overcast
3:55 AM 35.6 °F 29.2 °F 35.6 °F 100% 30.04 in 2.5 mi NNE 8.1 mph - N/A   Overcast
4:15 AM 35.6 °F 27.5 °F 33.8 °F 93% 30.02 in 1.5 mi NE 11.5 mph - N/A   Overcast
4:35 AM 35.6 °F 27.5 °F 35.6 °F 100% 30.03 in 2.0 mi ENE 11.5 mph - N/A   Overcast
4:55 AM 35.6 °F 28.0 °F 35.6 °F 100% 30.03 in 2.0 mi NNE 10.4 mph - N/A   Overcast
5:15 AM 35.6 °F 28.6 °F 33.8 °F 93% 30.04 in 2.0 mi NNE 9.2 mph - N/A   Overcast
5:35 AM 35.6 °F 27.5 °F 35.6 °F 100% 30.04 in 1.8 mi NNE 11.5 mph 18.4 mph N/A   Overcast
6:15 AM 35.6 °F 28.6 °F 35.6 °F 100% 30.06 in 1.8 mi NNE 9.2 mph - N/A   Overcast
6:35 AM 35.6 °F 28.0 °F 35.6 °F 100% 30.06 in 2.0 mi NNE 10.4 mph 17.3 mph N/A   Overcast
6:55 AM 35.6 °F 27.5 °F 35.6 °F 100% 30.06 in 1.8 mi NE 11.5 mph 18.4 mph N/A   Overcast
7:15 AM 35.6 °F 27.5 °F 35.6 °F 100% 30.08 in 1.8 mi NNE 11.5 mph 20.7 mph N/A   Overcast
7:36 AM 35.6 °F 28.0 °F 33.8 °F 93% 30.08 in 1.5 mi NNE 10.4 mph 18.4 mph N/A   Overcast
7:55 AM 35.6 °F 27.5 °F 35.6 °F 100% 30.08 in 2.5 mi NNE 11.5 mph 19.6 mph N/A   Overcast
8:15 AM 35.6 °F 28.6 °F 35.6 °F 100% 30.09 in 3.0 mi NNE 9.2 mph - N/A   Overcast
8:35 AM 35.6 °F 29.2 °F 35.6 °F 100% 30.11 in 5.0 mi NNE 8.1 mph - N/A   Overcast
8:55 AM 35.6 °F 28.6 °F 35.6 °F 100% 30.12 in 7.0 mi NNE 9.2 mph - N/A   Overcast
9:15 AM 35.6 °F 28.0 °F 35.6 °F 100% 30.12 in 7.0 mi NNE 10.4 mph 18.4 mph N/A   Overcast
9:35 AM 35.6 °F 28.0 °F 35.6 °F 100% 30.13 in 6.0 mi NNE 10.4 mph - N/A   Overcast
9:55 AM 35.6 °F 27.1 °F 35.6 °F 100% 30.14 in 7.0 mi NNE 12.7 mph 16.1 mph N/A   Overcast
10:16 AM 35.6 °F 26.6 °F 33.8 °F 93% 30.13 in 8.0 mi NNE 13.8 mph 18.4 mph N/A   Overcast
10:35 AM 35.6 °F 27.5 °F 33.8 °F 93% 30.14 in 10.0 mi NNE 11.5 mph 17.3 mph N/A   Overcast
10:55 AM 35.6 °F 27.5 °F 33.8 °F 93% 30.14 in 9.0 mi NNE 11.5 mph 21.9 mph N/A   Overcast
11:15 AM 35.6 °F 27.5 °F 33.8 °F 93% 30.15 in 7.0 mi NE 11.5 mph - N/A   Overcast
11:35 AM 33.8 °F 25.8 °F 33.8 °F 100% 30.15 in 7.0 mi NNE 10.4 mph 17.3 mph N/A   Overcast
12:15 PM 33.8 °F 25.8 °F 33.8 °F 100% 30.14 in 5.0 mi NNE 10.4 mph 18.4 mph N/A   Overcast
12:35 PM 35.6 °F 27.1 °F 33.8 °F 93% 30.15 in 4.0 mi NE 12.7 mph 18.4 mph N/A   Overcast
12:55 PM 35.6 °F 26.6 °F 33.8 °F 93% 30.15 in 3.0 mi NE 13.8 mph 19.6 mph N/A   Overcast
1:15 PM 35.6 °F 28.0 °F 33.8 °F 93% 30.15 in 3.0 mi NNE 10.4 mph 16.1 mph N/A   Overcast
1:35 PM 33.8 °F 27.7 °F 32.0 °F 93% 30.15 in 3.0 mi NNE 6.9 mph - N/A   Overcast
1:55 PM 35.6 °F 29.2 °F 33.8 °F 93% 30.15 in 3.0 mi NNE 8.1 mph - N/A   Overcast
2:15 PM 35.6 °F 28.6 °F 33.8 °F 93% 30.15 in 2.5 mi NNE 9.2 mph 16.1 mph N/A   Overcast
2:35 PM 33.8 °F 25.8 °F 32.0 °F 93% 30.15 in 3.0 mi NNE 10.4 mph 16.1 mph N/A   Overcast
2:55 PM 33.8 °F 26.4 °F 32.0 °F 93% 30.16 in 3.0 mi NNE 9.2 mph 16.1 mph N/A   Overcast
3:15 PM 33.8 °F 25.8 °F 32.0 °F 93% 30.17 in 3.0 mi NNE 10.4 mph - N/A   Overcast
3:35 PM 33.8 °F 26.4 °F 32.0 °F 93% 30.17 in 3.0 mi NNE 9.2 mph - N/A   Overcast
3:55 PM 33.8 °F 26.4 °F 32.0 °F 93% 30.17 in 3.0 mi NNE 9.2 mph 17.3 mph N/A   Overcast
4:15 PM 33.8 °F 27.0 °F 33.8 °F 100% 30.18 in 3.0 mi NNE 8.1 mph - N/A   Overcast
4:35 PM 33.8 °F 25.8 °F 33.8 °F 100% 30.19 in 8.0 mi NNE 10.4 mph - N/A   Overcast
4:55 PM 33.8 °F 25.3 °F 33.8 °F 100% 30.19 in 10.0 mi NNE 11.5 mph 18.4 mph N/A   Overcast
5:15 PM 33.8 °F 27.0 °F 32.0 °F 93% 30.20 in 9.0 mi NNE 8.1 mph 17.3 mph N/A   Overcast
5:35 PM 33.8 °F 27.0 °F 32.0 °F 93% 30.21 in 7.0 mi NNE 8.1 mph 17.3 mph N/A   Overcast
5:55 PM 33.8 °F 27.0 °F 32.0 °F 93% 30.21 in 5.0 mi NNE 8.1 mph - N/A   Overcast
6:15 PM 33.8 °F 28.6 °F 32.0 °F 93% 30.22 in 3.0 mi NNE 5.8 mph - N/A   Overcast
6:35 PM 33.8 °F 27.7 °F 32.0 °F 93% 30.22 in 5.0 mi NNE 6.9 mph - N/A   Overcast
6:55 PM 33.8 °F 26.4 °F 30.2 °F 87% 30.23 in 9.0 mi NNE 9.2 mph 16.1 mph N/A   Overcast
7:15 PM 33.8 °F 26.4 °F 32.0 °F 93% 30.23 in 10.0 mi NNE 9.2 mph 17.3 mph N/A   Overcast
7:35 PM 33.8 °F 27.0 °F 32.0 °F 93% 30.24 in 10.0 mi NNE 8.1 mph - N/A   Overcast
7:55 PM 33.8 °F 27.0 °F 30.2 °F 87% 30.25 in 10.0 mi NNE 8.1 mph - N/A   Overcast
8:15 PM 33.8 °F 27.7 °F 30.2 °F 87% 30.25 in 10.0 mi North 6.9 mph 16.1 mph N/A   Overcast
8:35 PM 33.8 °F 28.6 °F 30.2 °F 87% 30.26 in 9.0 mi North 5.8 mph - N/A   Overcast
8:55 PM 33.8 °F 27.0 °F 30.2 °F 87% 30.26 in 10.0 mi NNE 8.1 mph - N/A   Overcast
9:15 PM 33.8 °F 26.4 °F 30.2 °F 87% 30.26 in 7.0 mi NNE 9.2 mph - N/A   Overcast
9:35 PM 33.8 °F 28.6 °F 30.2 °F 87% 30.26 in 7.0 mi NNE 5.8 mph - N/A   Overcast
9:55 PM 33.8 °F 27.0 °F 30.2 °F 87% 30.26 in 10.0 mi NNE 8.1 mph - N/A   Overcast
10:15 PM 33.8 °F 27.7 °F 30.2 °F 87% 30.27 in 10.0 mi NNE 6.9 mph 17.3 mph N/A   Overcast
10:35 PM 32.0 °F 22.5 °F 30.2 °F 93% 30.27 in 10.0 mi NNE 12.7 mph 17.3 mph N/A   Overcast
10:55 PM 32.0 °F 23.6 °F 30.2 °F 93% 30.27 in 10.0 mi NNE 10.4 mph - N/A   Overcast
11:15 PM 32.0 °F 24.2 °F 28.4 °F 87% 30.26 in 10.0 mi NNE 9.2 mph - N/A   Overcast
11:35 PM 32.0 °F 25.6 °F 30.2 °F 93% 30.26 in 10.0 mi NNE 6.9 mph - N/A   Overcast
11:55 PM 32.0 °F 25.6 °F 30.2 °F 93% 30.26 in 10.0 mi North 6.9 mph - N/A   Overcast